Regional Weather Roundup
Issued by NWS

Home | Current Version | Previous Version | Graphics & Text | Print | Product List | Glossary On
Versions: 1 2 3 4 5 6 7 8 9 10 11 12 13 14 15 16 17 18 19 20 21 22 23 24 25 26 27 28 29 30 31 32 33 34 35 36 37 38 39 40 41 42 43 44 45 46 47 48 49 50
000
ASUS43 KMKX 221720
RWRWI

WISCONSIN REGIONAL WEATHER ROUNDUP
NATIONAL WEATHER SERVICE MILWAUKEE/SULLIVAN WI
1100 AM CST MON JAN 22 2018

NOTE: "FAIR" INDICATES FEW OR NO CLOUDS BELOW 12,000 FEET WITH NO
SIGNIFICANT WEATHER AND/OR OBSTRUCTIONS TO VISIBILITY.

WIZ001-002-006>008-014>016-023>028-221800-
NORTHWEST WISCONSIN

CITY           SKY/WX    TMP DP  RH WIND       PRES   REMARKS
SUPERIOR ARPT  CLOUDY    26  25  98 NE22G29   29.96S WCI  11
ASHLAND        SNOW      28  27  96 NE24G33   29.92F VSB 1/2 WCI  14
HAYWARD        MIX PCPN  28  24  85 NE18G29   29.84S WCI  15
SIREN          CLOUDY    30  25  81 NE15G24   29.83S WCI  19
CUMBERLAND     LGT RAIN  30  27  86 NE22      29.78R WCI  17
RICE LAKE      CLOUDY    31  28  86 N18G24    29.79S WCI  19
CHETEK         NOT AVBL
LADYSMITH      LGT SNOW  32  28  84 NE16G23   29.78S WCI  21
EAU CLAIRE     HVY SNOW  32  31  96 N16G29    29.68F VSB 1/4 WCI  21
MENOMONIE      SNOW      32  32  97 N20       29.71F VSB 1/2 WCI  21
NEW RICHMOND   LGT SNOW  32  26  78 NE17G24   29.76F WCI  20
OSCEOLA        LGT SNOW  31  27  86 NE13G21   29.81S WCI  21
$$

WIZ003>005-009-010-017-018-221800-
NORTH CENTRAL WISCONSIN

CITY           SKY/WX    TMP DP  RH WIND       PRES   REMARKS
MANITOWISH WTR CLOUDY    28  28 100 NE12G21   29.80F WCI  17
ARBOR VITAE    CLOUDY    32  30  92 NE10G18   29.78F WCI  23
WOODRUFF       CLOUDY    32  30  92 NE10G18   29.78F WCI  23
RHINELANDER    SNOW      31  30  96 NE16G24   29.75F VSB 1/2 WCI  20
EAGLE RIVER    CLOUDY    30  29  99 NE16      29.79F WCI  18
LAND O LAKES   CLOUDY    29  28  97 NE8       29.83F FOG     WCI  21
PHILLIPS       FLURRIES  29  28  93 NE17      29.77S WCI  17
TOMAHAWK       SNOW      31  28  90 NE9G16    29.74F VSB 1/2 WCI  23
MEDFORD        LGT SNOW  31  30  94 NE17      29.68F VSB 3/4 WCI  20
MERRILL        LGT SNOW  32  32  99 NE12G20   29.71F VSB 1   WCI  23
$$

WIZ029-030-035-036-043>047-221800-
CENTRAL WISCONSIN

CITY           SKY/WX    TMP DP  RH WIND       PRES   REMARKS
WAUSAU         LGT SNOW  33  31  92 NE10G21   29.65F FOG     WCI  25
MOSINEE        LGT SNOW  34  32  93 NE20G28   29.67F WCI  22
MARSHFIELD     LGT SNOW  33  32  96 NE18G25   29.62F VSB 1   WCI  22
STEVENS POINT  CLOUDY    32  32 100 NE15G26   29.66F WCI  22
WAUPACA        CLOUDY    36  33  90 NE9G21    29.66R WCI  29
WAUTOMA        CLOUDY    35  33  92 NE18G24   29.64S WCI  24
WISC RAPIDS    NOT AVBL
CAMP DOUGLAS   DRIZZLE   36  34  93 E14       29.59F FOG     WCI  27
$$

WIZ011>013-019>022-031-037>040-048>050-221800-
NORTHEAST WISCONSIN

CITY           SKY/WX    TMP DP  RH WIND       PRES   REMARKS
ANTIGO         LGT SNOW  32  30  94 NE24G33   29.69F WCI  18
SHAWANO        LGT SNOW  35  32  91 NE16G26   29.69F VSB 1   WCI  25
OCONTO         CLOUDY    32  32  99 NE13G22   29.74F WCI  23
STURGEON BAY   LGT SNOW  34  33  96 NE16G25   29.74F FOG     WCI  24
GREEN BAY      LGT RAIN  35  33  92 NE28      29.65F FOG     WCI  22
MANITOWOC      LGT RAIN  36  35  96 NE12G21   29.68F FOG     WCI  28
APPLETON       LGT RAIN  34  34 100 NE29G41   29.55F FOG     WCI  20
CLINTONVILLE   LGT RAIN  34  32  93 NE21G26   29.65F WCI  22
OSHKOSH        CLOUDY    36  34  92 E13G21    29.62R WCI  27
$$

WIZ032>034-041-042-053>061-221800-
SOUTHWEST WISCONSIN

CITY           SKY/WX    TMP DP  RH WIND       PRES   REMARKS
LA CROSSE      LGT RAIN  38  34  85 N9G25     29.57F FOG     WCI  31
SPARTA         DRIZZLE   34  33  96 NE15G24   29.59F WCI  24
VIROQUA        CLOUDY    34  34 100 E24G30    29.52F WCI  22
BOSCOBEL       RAIN      37  32  82 NE12G23   29.50F WCI  29
PRAIRIE DU CHI DRIZZLE   37  34  90 E5        29.49F WCI  33
PLATTEVILLE    CLOUDY    38  38 100 E18       29.47F WCI  28
$$

WIZ056-057-062-063-064-067-068-221800-
SOUTH CENTRAL WISCONSIN

CITY           SKY/WX    TMP DP  RH WIND       PRES   REMARKS
REEDSBURG      LGT RAIN  34  34 100 NE14G22   29.56F WCI  24
BARABOO/DELLS  RAIN      34  33  97 E17G25    29.56F WCI  23
LONE ROCK      CLOUDY    37  36  96 NE15G24   29.52F FOG     WCI  28
MINERAL POINT  CLOUDY    37  37 100 NE20      29.47F FOG     WCI  27
MADISON        LGT RAIN  38  37  97 NE10      29.56F FOG     WCI  31
MIDDLETON      CLOUDY    38  38 100 NE12G17   29.55F WCI  31
WATERTOWN      DRIZZLE   38  38 100 E10       29.55F WCI  31
MONROE         FOG       37  37 100 NE10      29.50F VSB<1/4 WCI  30
JANESVILLE     CLOUDY    39  39 100 NE5       29.54F FOG
$$

WIZ051-052-058>065-066-070>072-221800-
SOUTHEAST WISCONSIN

CITY           SKY/WX    TMP DP  RH WIND       PRES   REMARKS
MILWAUKEE      LGT RAIN  40  40 100 N6        29.56F VSB 3/4
WAUKESHA       CLOUDY    36  36 100 NE10G16   29.57F FOG     WCI  28
MILWAUKEE/TIMM DRIZZLE   37  34  87 NE10      29.59F FOG     WCI  30
RACINE         FOG       42  42 100 S8        29.56F VSB 1/2
BURLINGTON     MIX PCPN  39  38  96 NE5       29.54F
KENOSHA        CLOUDY    47  45  93 S7        29.53F FOG
FOND DU LAC    CLOUDY    39  34  82 E17G24    29.60F WCI  30
SHEBOYGAN      RAIN      37  37 100 NE21G28   29.61F FOG     WCI  26
WEST BEND      LGT RAIN  36  36 100 E17       29.56F WCI  25
JUNEAU         LGT RAIN  37  36  94 NE3       29.59F
$$

LSZ147-162-221800-
LAKE SUPERIOR

STATION/POSITION TIME  TEMP    WIND        PRES    WAVE
                       AIR SEA DIR/SP/G            HT/PER
                 (UTC) (F)     (DEG/KT/KT) (MB)    (FT/S)
DEVILS ISLAND    1700   24      50/ 24/ 27 1016.2F
SAXON HARBOR     1647   29      50/ 24/ 25 1012.9F
$$

LMZ867-665-643>646-221800-
LAKE MICHIGAN

STATION/POSITION TIME  TEMP    WIND        PRES    WAVE
                       AIR SEA DIR/SP/G            HT/PER
                 (UTC) (F)     (DEG/KT/KT) (MB)    (FT/S)
NORTHPORT PIER   1710   32      50/  4/ 27 1008.8
KEWAUNEE LAKESHO 1654   36      40/ 15/ 21 1005.3F
SHEBOYGAN LAKESH 1700   36      20/ 19/ 22 1003.3F
PORT WASHINGTON  1640   38      30/ 13/ 16 1004.1F
MILWAUKEE LAKESH 1700   38      20/  7/  8   N/A
KENOSHA   LAKESH 1700   37     170/  7/ 11 1000.7
$$

TC  - TEMPERATURE IN CELSIUS
VSB - VISIBILITY IN STATUTE MILES
WCI - WIND CHILL INDEX
HX  - HEAT INDEX





USA.gov is the U.S. government's official web portal to all federal, state and local government web resources and services.